Location: Devore Heights
(34.2372°N, 117.4156°W)
Time: 19:31:42
(UTC+00:00)

deb Explorer IX - Pass Details

Date: 18 September 2024
Orbit: 502 x 816 km, 38.7° (Epoch: 15 October)

Event Time Altitude Azimuth Distance (km) Brightness Sun altitude
Rises 05:43:55 0° 286° (WNW) 3,408 ? -44.4°
Enters shadow 05:46:54 12° 291° (WNW) 2,335 ? -44.8°
Maximum altitude 05:52:24 64° 11° (NNE) 909 - -45.6°
Drops below altitude 10° 05:57:58 10° 93° (E) 2,340 - -46.4°
Sets 06:00:23 0° 97° (E) 3,221 - -46.7°
